Time,TemperatureF,DewpointF,PressureIn,WindDirection,WindDirectionDegrees,WindSpeedMPH,WindSpeedGustMPH,Humidity,HourlyPrecipIn,Conditions,Clouds,dailyrainin,SoftwareType,DateUTC
2013-02-03 00:00:00,27.0,6.0,-100.00,WSW,249,2.0,2.0,40,0.00,,,0.00,,2013-02-03 07:00:00,
2013-02-03 00:41:00,27.0,6.0,-100.00,WSW,249,2.0,2.0,40,0.00,,,0.00,,2013-02-03 07:41:00,
2013-02-03 00:52:00,27.0,6.0,-100.00,WSW,249,2.0,2.0,40,0.00,,,0.00,,2013-02-03 07:52:00,
2013-02-03 02:00:00,29.0,6.0,-100.00,WSW,248,10.0,13.0,36,0.00,,,0.00,,2013-02-03 09:00:00,
2013-02-03 02:41:00,29.0,6.0,-100.00,WSW,248,10.0,13.0,36,0.00,,,0.00,,2013-02-03 09:41:00,
2013-02-03 02:52:00,29.0,6.0,-100.00,WSW,248,10.0,13.0,36,0.00,,,0.00,,2013-02-03 09:52:00,
2013-02-03 03:00:00,30.0,4.0,-100.00,West,263,11.0,14.0,32,0.00,,,0.00,,2013-02-03 10:00:00,
2013-02-03 03:41:00,30.0,4.0,-100.00,West,263,11.0,14.0,32,0.00,,,0.00,,2013-02-03 10:41:00,
2013-02-03 03:52:00,30.0,4.0,-100.00,West,263,11.0,14.0,32,0.00,,,0.00,,2013-02-03 10:52:00,
2013-02-03 04:00:00,32.0,2.0,-100.00,West,274,11.0,15.0,27,0.00,,,0.00,,2013-02-03 11:00:00,
2013-02-03 04:41:00,32.0,2.0,-100.00,West,274,11.0,15.0,27,0.00,,,0.00,,2013-02-03 11:41:00,
2013-02-03 04:52:00,32.0,2.0,-100.00,West,274,11.0,15.0,27,0.00,,,0.00,,2013-02-03 11:52:00,
2013-02-03 05:00:00,28.0,7.0,-100.00,NNW,343,2.0,3.0,40,0.00,,,0.00,,2013-02-03 12:00:00,
2013-02-03 05:42:00,28.0,7.0,-100.00,NNW,343,2.0,3.0,40,0.00,,,0.00,,2013-02-03 12:42:00,
2013-02-03 05:53:00,28.0,7.0,-100.00,NNW,343,2.0,3.0,40,0.00,,,0.00,,2013-02-03 12:53:00,
2013-02-03 06:00:00,28.0,4.0,-100.00,SW,223,6.0,7.0,35,0.00,,,0.00,,2013-02-03 13:00:00,
2013-02-03 06:32:00,28.0,4.0,-100.00,SW,223,6.0,7.0,35,0.00,,,0.00,,2013-02-03 13:32:00,
2013-02-03 06:42:00,28.0,4.0,-100.00,SW,223,6.0,7.0,35,0.00,,,0.00,,2013-02-03 13:42:00,
2013-02-03 06:52:00,28.0,4.0,-100.00,SW,223,6.0,7.0,35,0.00,,,0.00,,2013-02-03 13:52:00,
2013-02-03 07:00:00,31.0,3.0,-100.00,SW,233,8.0,11.0,29,0.00,,,0.00,,2013-02-03 14:00:00,
2013-02-03 07:42:00,31.0,3.0,-100.00,SW,233,8.0,11.0,29,0.00,,,0.00,,2013-02-03 14:42:00,
2013-02-03 07:52:00,31.0,3.0,-100.00,SW,233,8.0,11.0,29,0.00,,,0.00,,2013-02-03 14:52:00,
2013-02-03 08:00:00,30.0,3.0,-100.00,SW,224,7.0,8.0,30,0.00,,,0.00,,2013-02-03 15:00:00,
2013-02-03 08:41:00,30.0,3.0,-100.00,SW,224,7.0,8.0,30,0.00,,,0.00,,2013-02-03 15:41:00,
2013-02-03 08:52:00,30.0,3.0,-100.00,SW,224,7.0,8.0,30,0.00,,,0.00,,2013-02-03 15:52:00,
2013-02-03 09:00:00,34.0,5.0,-100.00,SW,226,1.0,4.0,30,0.00,,,0.00,,2013-02-03 16:00:00,
2013-02-03 09:41:00,34.0,5.0,-100.00,SW,226,1.0,4.0,30,0.00,,,0.00,,2013-02-03 16:41:00,
2013-02-03 09:52:00,34.0,5.0,-100.00,SW,226,1.0,4.0,30,0.00,,,0.00,,2013-02-03 16:52:00,
2013-02-03 10:00:00,36.0,6.0,-100.00,WSW,244,1.0,2.0,28,0.00,,,0.00,,2013-02-03 17:00:00,
2013-02-03 10:42:00,36.0,6.0,-100.00,WSW,244,1.0,2.0,28,0.00,,,0.00,,2013-02-03 17:42:00,
2013-02-03 10:52:00,36.0,6.0,-100.00,WSW,244,1.0,2.0,28,0.00,,,0.00,,2013-02-03 17:52:00,
2013-02-03 11:00:00,39.0,6.0,-100.00,West,278,1.0,2.0,25,0.00,,,0.00,,2013-02-03 18:00:00,
2013-02-03 11:41:00,39.0,6.0,-100.00,West,278,1.0,2.0,25,0.00,,,0.00,,2013-02-03 18:41:00,
2013-02-03 11:52:00,39.0,6.0,-100.00,West,278,1.0,2.0,25,0.00,,,0.00,,2013-02-03 18:52:00,
2013-02-03 12:00:00,39.0,9.0,-100.00,ENE,73,2.0,4.0,28,0.00,,,0.00,,2013-02-03 19:00:00,
2013-02-03 12:32:00,39.0,9.0,-100.00,ENE,73,2.0,4.0,28,0.00,,,0.00,,2013-02-03 19:32:00,
2013-02-03 12:41:00,39.0,9.0,-100.00,ENE,73,2.0,4.0,28,0.00,,,0.00,,2013-02-03 19:41:00,
2013-02-03 12:52:00,39.0,9.0,-100.00,ENE,73,2.0,4.0,28,0.00,,,0.00,,2013-02-03 19:52:00,
2013-02-03 13:00:00,35.0,11.0,-100.00,ENE,67,2.0,4.0,36,0.00,,,0.00,,2013-02-03 20:00:00,
2013-02-03 13:42:00,35.0,11.0,-100.00,ENE,67,2.0,4.0,36,0.00,,,0.00,,2013-02-03 20:42:00,
2013-02-03 13:52:00,35.0,11.0,-100.00,ENE,67,2.0,4.0,36,0.00,,,0.00,,2013-02-03 20:52:00,
2013-02-03 14:00:00,38.0,8.0,-100.00,WSW,242,4.0,5.0,28,0.00,,,0.00,,2013-02-03 21:00:00,
2013-02-03 14:42:00,38.0,8.0,-100.00,WSW,242,4.0,5.0,28,0.00,,,0.00,,2013-02-03 21:42:00,
2013-02-03 14:52:00,38.0,8.0,-100.00,WSW,242,4.0,5.0,28,0.00,,,0.00,,2013-02-03 21:52:00,
2013-02-03 15:00:00,44.0,8.0,-100.00,ENE,74,7.0,10.0,22,0.00,,,0.00,,2013-02-03 22:00:00,
2013-02-03 15:41:00,44.0,8.0,-100.00,ENE,74,7.0,10.0,22,0.00,,,0.00,,2013-02-03 22:41:00,
2013-02-03 15:52:00,44.0,8.0,-100.00,ENE,74,7.0,10.0,22,0.00,,,0.00,,2013-02-03 22:52:00,
2013-02-03 16:00:00,43.0,7.0,-100.00,ESE,108,3.0,6.0,22,0.00,,,0.00,,2013-02-03 23:00:00,
2013-02-03 16:41:00,43.0,7.0,-100.00,ESE,108,3.0,6.0,22,0.00,,,0.00,,2013-02-03 23:41:00,
2013-02-03 16:52:00,43.0,7.0,-100.00,ESE,108,3.0,6.0,22,0.00,,,0.00,,2013-02-03 23:52:00,
2013-02-03 17:00:00,34.0,9.0,-100.00,WSW,243,5.0,6.0,35,0.00,,,0.00,,2013-02-04 00:00:00,
2013-02-03 17:31:00,34.0,9.0,-100.00,WSW,243,5.0,6.0,35,0.00,,,0.00,,2013-02-04 00:31:00,
2013-02-03 17:41:00,34.0,9.0,-100.00,WSW,243,5.0,6.0,35,0.00,,,0.00,,2013-02-04 00:41:00,
2013-02-03 17:52:00,34.0,9.0,-100.00,WSW,243,5.0,6.0,35,0.00,,,0.00,,2013-02-04 00:52:00,
2013-02-03 18:00:00,32.0,8.0,-100.00,WSW,254,8.0,10.0,35,0.00,,,0.00,,2013-02-04 01:00:00,
2013-02-03 18:31:00,32.0,8.0,-100.00,WSW,254,8.0,10.0,35,0.00,,,0.00,,2013-02-04 01:31:00,
2013-02-03 18:41:00,32.0,8.0,-100.00,WSW,254,8.0,10.0,35,0.00,,,0.00,,2013-02-04 01:41:00,
2013-02-03 18:52:00,32.0,8.0,-100.00,WSW,254,8.0,10.0,35,0.00,,,0.00,,2013-02-04 01:52:00,
2013-02-03 19:00:00,34.0,7.0,-100.00,West,264,11.0,16.0,31,0.00,,,0.00,,2013-02-04 02:00:00,
2013-02-03 19:41:00,34.0,7.0,-100.00,West,264,11.0,16.0,31,0.00,,,0.00,,2013-02-04 02:41:00,
2013-02-03 19:52:00,34.0,7.0,-100.00,West,264,11.0,16.0,31,0.00,,,0.00,,2013-02-04 02:52:00,
2013-02-03 20:00:00,32.0,6.0,-100.00,West,272,12.0,16.0,32,0.00,,,0.00,,2013-02-04 03:00:00,
2013-02-03 20:41:00,32.0,6.0,-100.00,West,272,12.0,16.0,32,0.00,,,0.00,,2013-02-04 03:41:00,
2013-02-03 20:52:00,32.0,6.0,-100.00,West,272,12.0,16.0,32,0.00,,,0.00,,2013-02-04 03:52:00,
2013-02-03 21:00:00,31.0,4.0,-100.00,West,262,13.0,17.0,31,0.00,,,0.00,,2013-02-04 04:00:00,
2013-02-03 21:31:00,31.0,4.0,-100.00,West,262,13.0,17.0,31,0.00,,,0.00,,2013-02-04 04:31:00,
2013-02-03 21:41:00,31.0,4.0,-100.00,West,262,13.0,17.0,31,0.00,,,0.00,,2013-02-04 04:41:00,
2013-02-03 21:52:00,31.0,4.0,-100.00,West,262,13.0,17.0,31,0.00,,,0.00,,2013-02-04 04:52:00,
2013-02-03 22:00:00,30.0,2.0,-100.00,West,268,13.0,18.0,29,0.00,,,0.00,,2013-02-04 05:00:00,
2013-02-03 22:33:00,30.0,2.0,-100.00,West,268,13.0,18.0,29,0.00,,,0.00,,2013-02-04 05:33:00,
2013-02-03 22:42:00,30.0,2.0,-100.00,West,268,13.0,18.0,29,0.00,,,0.00,,2013-02-04 05:42:00,
2013-02-03 22:52:00,30.0,2.0,-100.00,West,268,13.0,18.0,29,0.00,,,0.00,,2013-02-04 05:52:00,
2013-02-03 23:00:00,29.0,1.0,-100.00,West,269,14.0,18.0,29,0.00,,,0.00,,2013-02-04 06:00:00,
2013-02-03 23:31:00,29.0,1.0,-100.00,West,269,14.0,18.0,29,0.00,,,0.00,,2013-02-04 06:31:00,
2013-02-03 23:41:00,29.0,1.0,-100.00,West,269,14.0,18.0,29,0.00,,,0.00,,2013-02-04 06:41:00,
2013-02-03 23:52:00,29.0,1.0,-100.00,West,269,14.0,18.0,29,0.00,,,0.00,,2013-02-04 06:52:00,